Darstellungsparameter: Aktuell verwendete Einstellungen:
Skalierung der Graphiken ... ?
xyx+y,   Skalierungsfaktor:      Skalierung: Modus: x, Faktor: 1
Darstellungszeitraum ... ?
Vom - - bis: - -   Zeitraum: 28.11.2020 - 30.11.2020
Min/Max/Avg-Anzeige ... ?
Zeige MMA aktuell
Zeige MMA Monat
Zeige MMA alles
Zeige --A aktuell
Zeige --A Monat
Zeige --A alles
Keine MMA-Anzeige
MMA:
Average (ber die Originaldaten)
MMA-Basis: 28.11.2020 - 30.11.2020
Quicknavigation für Darstellung... ?
Tage:      1T, 2T, 3T, 5T -1T -2T -3T -5T +1T +2T +3T +5T
Wochen: 1W, 2W, 3W -1W -2W -3W +1W +2W +3W
Monate: 1M, 3M, 6M -1M -3M -6M +1M +3M +6M
Jahre:    1J, 3J, 5J, 10J -1J -3J -5J -10J +1J +3J +5J +10J
Nutze für die Darstellung ... ?
Originaldaten oder Mittelwerte auf ...
Stundenbasis Tagesbasis Wochenbasis
Monatsbasis Jahresbasis      Datenbasis: Original-Daten
Darstellen als:
Statistik (Auto) Statistik J:M      Darstellung:
Zur Graphik,    zurück zur Übersicht aller Sensoren.
 
Tabellarische Datenbersicht: ?
 
Sensor: Nr:Datum:Temp:Abs-Feuchte:Windchill:Wind:
Aussen-T/F 1 28-11-2020 00:00:00 3.8 C 5.77 g/m*3 3.8 C 3.2 km/h
2 28-11-2020 00:05:00 3.8 C 5.77 g/m*3 3.8 C 1.6 km/h
3 28-11-2020 00:10:00 3.8 C 5.83 g/m*3 3.8 C 0 km/h
4 28-11-2020 00:15:00 3.8 C 5.83 g/m*3 3.8 C 0 km/h
5 28-11-2020 00:20:00 3.8 C 5.83 g/m*3 3.8 C 0 km/h
6 28-11-2020 00:25:00 3.8 C 5.83 g/m*3 3.8 C 0 km/h
7 28-11-2020 00:30:00 3.8 C 5.83 g/m*3 3.8 C 0 km/h
8 28-11-2020 00:35:00 3.8 C 5.83 g/m*3 3.8 C 0 km/h
9 28-11-2020 00:40:00 3.7 C 5.8 g/m*3 3.7 C 0 km/h
10 28-11-2020 00:45:00 3.7 C 5.8 g/m*3 3.7 C 0 km/h
11 28-11-2020 00:50:00 3.7 C 5.8 g/m*3 3.7 C 4.8 km/h
12 28-11-2020 00:55:00 3.6 C 5.76 g/m*3 3.6 C 1.6 km/h
13 28-11-2020 01:00:00 3.6 C 5.76 g/m*3 3.6 C 3.2 km/h
14 28-11-2020 01:05:00 3.6 C 5.76 g/m*3 3.6 C 1.6 km/h
15 28-11-2020 01:10:00 3.6 C 5.76 g/m*3 3.6 C 0 km/h
16 28-11-2020 01:15:00 3.6 C 5.76 g/m*3 3.6 C 1.6 km/h
17 28-11-2020 01:20:00 3.6 C 5.76 g/m*3 3.6 C 0 km/h
18 28-11-2020 01:25:00 3.6 C 5.76 g/m*3 1.98 C 6.4 km/h
19 28-11-2020 01:30:00 3.6 C 5.76 g/m*3 1.98 C 6.4 km/h
20 28-11-2020 01:35:00 3.6 C 5.76 g/m*3 3.6 C 3.2 km/h
21 28-11-2020 01:40:00 3.6 C 5.76 g/m*3 3.6 C 0 km/h
22 28-11-2020 01:45:00 3.6 C 5.76 g/m*3 3.6 C 4.8 km/h
23 28-11-2020 01:50:00 3.6 C 5.76 g/m*3 3.6 C 3.2 km/h
24 28-11-2020 01:55:00 3.5 C 5.72 g/m*3 3.5 C 1.6 km/h
25 28-11-2020 02:00:00 3.5 C 5.72 g/m*3 3.5 C 3.2 km/h
Sensor: Nr:Datum:Temp:Abs-Feuchte:Windchill:Wind:
Aussen-T/F 26 28-11-2020 02:05:00 3.5 C 5.72 g/m*3 3.5 C 0 km/h
27 28-11-2020 02:10:00 3.5 C 5.72 g/m*3 3.5 C 3.2 km/h
28 28-11-2020 02:15:00 3.4 C 5.68 g/m*3 3.4 C 1.6 km/h
29 28-11-2020 02:20:00 3.4 C 5.68 g/m*3 3.4 C 0 km/h
30 28-11-2020 02:25:00 3.4 C 5.68 g/m*3 3.4 C 0 km/h
31 28-11-2020 02:30:00 3.4 C 5.74 g/m*3 3.4 C 1.6 km/h
32 28-11-2020 02:35:00 3.4 C 5.68 g/m*3 3.4 C 3.2 km/h
33 28-11-2020 02:40:00 3.4 C 5.68 g/m*3 3.4 C 1.6 km/h
34 28-11-2020 02:45:00 3.4 C 5.68 g/m*3 3.4 C 3.2 km/h
35 28-11-2020 02:50:00 3.4 C 5.68 g/m*3 3.4 C 1.6 km/h
36 28-11-2020 02:55:00 3.4 C 5.74 g/m*3 3.4 C 3.2 km/h
37 28-11-2020 03:00:00 3.4 C 5.74 g/m*3 3.4 C 0 km/h
38 28-11-2020 03:05:00 3.3 C 5.7 g/m*3 3.3 C 0 km/h
39 28-11-2020 03:10:00 3.3 C 5.7 g/m*3 3.3 C 0 km/h
40 28-11-2020 03:15:00 3.3 C 5.7 g/m*3 3.3 C 0 km/h
41 28-11-2020 03:20:00 3.3 C 5.7 g/m*3 3.3 C 0 km/h
42 28-11-2020 03:25:00 3.3 C 5.7 g/m*3 3.3 C 0 km/h
43 28-11-2020 03:30:00 3.2 C 5.66 g/m*3 3.2 C 0 km/h
44 28-11-2020 03:35:00 3.2 C 5.6 g/m*3 3.2 C 0 km/h
45 28-11-2020 03:40:00 3.2 C 5.66 g/m*3 3.2 C 0 km/h
46 28-11-2020 03:45:00 3.2 C 5.6 g/m*3 3.2 C 3.2 km/h
47 28-11-2020 03:50:00 3.1 C 5.57 g/m*3 3.1 C 3.2 km/h
48 28-11-2020 03:55:00 3.1 C 5.57 g/m*3 3.1 C 3.2 km/h
49 28-11-2020 04:00:00 3.1 C 5.63 g/m*3 3.1 C 3.2 km/h
50 28-11-2020 04:05:00 3.1 C 5.63 g/m*3 3.1 C 3.2 km/h
Sensor: Nr:Datum:Temp:Abs-Feuchte:Windchill:Wind:
Aussen-T/F 51 28-11-2020 04:10:00 3 C 5.59 g/m*3 3 C 4.8 km/h
52 28-11-2020 04:15:00 3 C 5.59 g/m*3 1.28 C 6.4 km/h
53 28-11-2020 04:20:00 2.9 C 5.55 g/m*3 2.9 C 4.8 km/h
54 28-11-2020 04:25:00 2.9 C 5.55 g/m*3 2.9 C 0 km/h
55 28-11-2020 04:30:00 2.9 C 5.55 g/m*3 2.9 C 1.6 km/h
56 28-11-2020 04:35:00 2.9 C 5.55 g/m*3 2.9 C 1.6 km/h
57 28-11-2020 04:40:00 2.9 C 5.55 g/m*3 2.9 C 0 km/h
58 28-11-2020 04:45:00 2.9 C 5.55 g/m*3 2.9 C 1.6 km/h
59 28-11-2020 04:50:00 2.9 C 5.55 g/m*3 2.9 C 0 km/h
60 28-11-2020 04:55:00 2.9 C 5.55 g/m*3 2.9 C 0 km/h
61 28-11-2020 05:00:00 2.9 C 5.55 g/m*3 2.9 C 1.6 km/h
62 28-11-2020 05:05:00 2.9 C 5.55 g/m*3 2.9 C 1.6 km/h
63 28-11-2020 05:10:00 2.9 C 5.55 g/m*3 2.9 C 0 km/h
64 28-11-2020 05:15:00 2.9 C 5.55 g/m*3 2.9 C 0 km/h
65 28-11-2020 05:20:00 2.9 C 5.55 g/m*3 2.9 C 0 km/h
66 28-11-2020 05:25:00 2.9 C 5.55 g/m*3 2.9 C 0 km/h
67 28-11-2020 05:30:00 2.9 C 5.55 g/m*3 2.9 C 1.6 km/h
68 28-11-2020 05:35:00 2.9 C 5.55 g/m*3 2.9 C 1.6 km/h
69 28-11-2020 05:40:00 2.9 C 5.55 g/m*3 2.9 C 1.6 km/h
70 28-11-2020 05:45:00 2.9 C 5.55 g/m*3 2.9 C 4.8 km/h
71 28-11-2020 05:50:00 2.8 C 5.51 g/m*3 2.8 C 0 km/h
72 28-11-2020 05:55:00 2.8 C 5.51 g/m*3 2.8 C 1.6 km/h
73 28-11-2020 06:00:00 2.8 C 5.51 g/m*3 2.8 C 0 km/h
74 28-11-2020 06:05:00 2.8 C 5.51 g/m*3 2.8 C 0 km/h
75 28-11-2020 06:10:00 2.8 C 5.51 g/m*3 2.8 C 4.8 km/h
Sensor: Nr:Datum:Temp:Abs-Feuchte:Windchill:Wind:
Aussen-T/F 76 28-11-2020 06:15:00 2.8 C 5.51 g/m*3 2.8 C 4.8 km/h
77 28-11-2020 06:20:00 2.7 C 5.48 g/m*3 2.7 C 1.6 km/h
78 28-11-2020 06:25:00 2.7 C 5.48 g/m*3 2.7 C 3.2 km/h
79 28-11-2020 06:30:00 2.7 C 5.48 g/m*3 2.7 C 0 km/h
80 28-11-2020 06:35:00 2.7 C 5.48 g/m*3 2.7 C 0 km/h
81 28-11-2020 06:40:00 2.7 C 5.48 g/m*3 2.7 C 0 km/h
82 28-11-2020 06:45:00 2.7 C 5.48 g/m*3 2.7 C 0 km/h
83 28-11-2020 06:50:00 2.7 C 5.48 g/m*3 2.7 C 0 km/h
84 28-11-2020 06:55:00 2.7 C 5.48 g/m*3 2.7 C 3.2 km/h
85 28-11-2020 07:00:00 2.7 C 5.48 g/m*3 2.7 C 0 km/h
86 28-11-2020 07:05:00 2.6 C 5.44 g/m*3 2.6 C 0 km/h
87 28-11-2020 07:10:00 2.6 C 5.44 g/m*3 2.6 C 0 km/h
88 28-11-2020 07:15:00 2.6 C 5.44 g/m*3 2.6 C 0 km/h
89 28-11-2020 07:20:00 2.6 C 5.44 g/m*3 2.6 C 0 km/h
90 28-11-2020 07:25:00 2.6 C 5.44 g/m*3 2.6 C 0 km/h
91 28-11-2020 07:30:00 2.6 C 5.44 g/m*3 2.6 C 3.2 km/h
92 28-11-2020 07:35:00 2.5 C 5.4 g/m*3 2.5 C 3.2 km/h
93 28-11-2020 07:40:00 2.5 C 5.4 g/m*3 2.5 C 0 km/h
94 28-11-2020 07:45:00 2.5 C 5.4 g/m*3 2.5 C 0 km/h
95 28-11-2020 07:50:00 2.5 C 5.4 g/m*3 2.5 C 0 km/h
96 28-11-2020 07:55:00 2.5 C 5.4 g/m*3 2.5 C 1.6 km/h
97 28-11-2020 08:00:00 2.5 C 5.4 g/m*3 2.5 C 3.2 km/h
98 28-11-2020 08:05:00 2.5 C 5.4 g/m*3 2.5 C 1.6 km/h
99 28-11-2020 08:10:00 2.4 C 5.37 g/m*3 2.4 C 1.6 km/h
100 28-11-2020 08:15:00 2.4 C 5.37 g/m*3 2.4 C 0 km/h
Sensor: Nr:Datum:Temp:Abs-Feuchte:Windchill:Wind:
Aussen-T/F 101 28-11-2020 08:20:00 2.4 C 5.37 g/m*3 2.4 C 0 km/h
102 28-11-2020 08:25:00 2.4 C 5.37 g/m*3 2.4 C 0 km/h
103 28-11-2020 08:30:00 2.4 C 5.37 g/m*3 2.4 C 0 km/h
104 28-11-2020 08:35:00 2.4 C 5.37 g/m*3 2.4 C 0 km/h
105 28-11-2020 08:40:00 2.4 C 5.37 g/m*3 2.4 C 0 km/h
106 28-11-2020 08:45:00 2.4 C 5.37 g/m*3 2.4 C 0 km/h
107 28-11-2020 08:50:00 2.4 C 5.37 g/m*3 2.4 C 0 km/h
108 28-11-2020 08:55:00 2.4 C 5.37 g/m*3 2.4 C 0 km/h
109 28-11-2020 09:00:00 2.4 C 5.37 g/m*3 2.4 C 0 km/h
110 28-11-2020 09:05:00 2.4 C 5.37 g/m*3 2.4 C 0 km/h
111 28-11-2020 09:10:00 2.5 C 5.4 g/m*3 2.5 C 3.2 km/h
112 28-11-2020 09:15:00 2.5 C 5.4 g/m*3 2.5 C 3.2 km/h
113 28-11-2020 09:20:00 2.5 C 5.4 g/m*3 2.5 C 1.6 km/h
114 28-11-2020 09:25:00 2.5 C 5.4 g/m*3 2.5 C 3.2 km/h
115 28-11-2020 09:30:00 2.6 C 5.44 g/m*3 2.6 C 3.2 km/h
116 28-11-2020 09:35:00 2.6 C 5.44 g/m*3 2.6 C 3.2 km/h
117 28-11-2020 09:40:00 2.6 C 5.44 g/m*3 2.6 C 0 km/h
118 28-11-2020 09:45:00 2.7 C 5.48 g/m*3 2.7 C 1.6 km/h
119 28-11-2020 09:50:00 2.7 C 5.48 g/m*3 2.7 C 1.6 km/h
120 28-11-2020 09:55:00 2.7 C 5.48 g/m*3 2.7 C 0 km/h
121 28-11-2020 10:00:00 2.8 C 5.46 g/m*3 2.8 C 4.8 km/h
122 28-11-2020 10:05:00 2.8 C 5.46 g/m*3 2.8 C 3.2 km/h
123 28-11-2020 10:10:00 2.8 C 5.46 g/m*3 2.8 C 1.6 km/h
124 28-11-2020 10:15:00 2.8 C 5.46 g/m*3 2.8 C 3.2 km/h
125 28-11-2020 10:20:00 2.8 C 5.46 g/m*3 2.8 C 1.6 km/h
Sensor: Nr:Datum:Temp:Abs-Feuchte:Windchill:Wind:
Aussen-T/F 126 28-11-2020 10:25:00 2.9 C 5.49 g/m*3 2.9 C 4.8 km/h
127 28-11-2020 10:30:00 2.9 C 5.49 g/m*3 2.9 C 4.8 km/h
128 28-11-2020 10:35:00 3 C 5.53 g/m*3 3 C 1.6 km/h
129 28-11-2020 10:40:00 3 C 5.53 g/m*3 3 C 3.2 km/h
130 28-11-2020 10:45:00 3.1 C 5.51 g/m*3 3.1 C 1.6 km/h
131 28-11-2020 10:50:00 3.1 C 5.51 g/m*3 3.1 C 1.6 km/h
132 28-11-2020 10:55:00 3.1 C 5.51 g/m*3 3.1 C 1.6 km/h
133 28-11-2020 11:00:00 3.2 C 5.54 g/m*3 3.2 C 1.6 km/h
134 28-11-2020 11:05:00 3.3 C 5.58 g/m*3 3.3 C 1.6 km/h
135 28-11-2020 11:10:00 3.3 C 5.58 g/m*3 3.3 C 0 km/h
136 28-11-2020 11:15:00 3.3 C 5.58 g/m*3 3.3 C 4.8 km/h
137 28-11-2020 11:20:00 3.4 C 5.62 g/m*3 1.75 C 6.4 km/h
138 28-11-2020 11:25:00 3.4 C 5.62 g/m*3 3.4 C 4.8 km/h
139 28-11-2020 11:30:00 3.4 C 5.56 g/m*3 3.4 C 0 km/h
140 28-11-2020 11:35:00 3.5 C 5.6 g/m*3 3.5 C 3.2 km/h
141 28-11-2020 11:40:00 3.6 C 5.63 g/m*3 3.6 C 3.2 km/h
142 28-11-2020 11:45:00 3.6 C 5.63 g/m*3 3.6 C 4.8 km/h
143 28-11-2020 11:50:00 3.6 C 5.57 g/m*3 3.6 C 4.8 km/h
144 28-11-2020 11:55:00 3.6 C 5.57 g/m*3 3.6 C 3.2 km/h
145 28-11-2020 12:00:00 3.7 C 5.61 g/m*3 3.7 C 3.2 km/h
146 28-11-2020 12:05:00 3.7 C 5.61 g/m*3 3.7 C 3.2 km/h
147 28-11-2020 12:10:00 3.8 C 5.65 g/m*3 3.8 C 3.2 km/h
148 28-11-2020 12:15:00 3.8 C 5.65 g/m*3 3.8 C 4.8 km/h
149 28-11-2020 12:20:00 3.8 C 5.65 g/m*3 3.8 C 1.6 km/h
150 28-11-2020 12:25:00 3.8 C 5.65 g/m*3 3.8 C 1.6 km/h
Sensor: Nr:Datum:Temp:Abs-Feuchte:Windchill:Wind:
Aussen-T/F 151 28-11-2020 12:30:00 3.9 C 5.68 g/m*3 3.9 C 3.2 km/h
152 28-11-2020 12:35:00 3.9 C 5.62 g/m*3 3.9 C 4.8 km/h
153 28-11-2020 12:40:00 3.9 C 5.62 g/m*3 3.9 C 4.8 km/h
154 28-11-2020 12:45:00 3.8 C 5.58 g/m*3 2.21 C 6.4 km/h
155 28-11-2020 12:50:00 3.8 C 5.58 g/m*3 3.8 C 4.8 km/h
156 28-11-2020 12:55:00 3.8 C 5.58 g/m*3 2.21 C 6.4 km/h
157 28-11-2020 13:00:00 3.8 C 5.58 g/m*3 3.8 C 3.2 km/h
158 28-11-2020 13:05:00 3.9 C 5.62 g/m*3 3.9 C 4.8 km/h
159 28-11-2020 13:10:00 3.9 C 5.62 g/m*3 3.9 C 4.8 km/h
160 28-11-2020 13:15:00 3.9 C 5.62 g/m*3 2.32 C 6.4 km/h
161 28-11-2020 13:20:00 3.9 C 5.62 g/m*3 3.9 C 4.8 km/h
162 28-11-2020 13:25:00 4.1 C 5.7 g/m*3 2.55 C 6.4 km/h
163 28-11-2020 13:30:00 4.1 C 5.7 g/m*3 4.1 C 1.6 km/h
164 28-11-2020 13:35:00 4.1 C 5.7 g/m*3 2.05 C 8.1 km/h
165 28-11-2020 13:40:00 4.1 C 5.7 g/m*3 2.05 C 8.1 km/h
166 28-11-2020 13:45:00 4.2 C 5.73 g/m*3 4.2 C 3.2 km/h
167 28-11-2020 13:50:00 4.2 C 5.73 g/m*3 4.2 C 4.8 km/h
168 28-11-2020 13:55:00 4.3 C 5.77 g/m*3 4.3 C 4.8 km/h
169 28-11-2020 14:00:00 4.3 C 5.77 g/m*3 2.78 C 6.4 km/h
170 28-11-2020 14:05:00 4.3 C 5.77 g/m*3 4.3 C 3.2 km/h
171 28-11-2020 14:10:00 4.2 C 5.73 g/m*3 4.2 C 3.2 km/h
172 28-11-2020 14:15:00 4.2 C 5.73 g/m*3 2.17 C 8.1 km/h
173 28-11-2020 14:20:00 4.1 C 5.7 g/m*3 2.55 C 6.4 km/h
174 28-11-2020 14:25:00 4.1 C 5.7 g/m*3 4.1 C 4.8 km/h
175 28-11-2020 14:30:00 4.2 C 5.8 g/m*3 4.2 C 3.2 km/h
Sensor: Nr:Datum:Temp:Abs-Feuchte:Windchill:Wind:
Aussen-T/F 176 28-11-2020 14:35:00 4.1 C 5.7 g/m*3 2.55 C 6.4 km/h
177 28-11-2020 14:40:00 4.1 C 5.7 g/m*3 4.1 C 4.8 km/h
178 28-11-2020 14:45:00 4.1 C 5.76 g/m*3 4.1 C 1.6 km/h
179 28-11-2020 14:50:00 4.1 C 5.7 g/m*3 2.55 C 6.4 km/h
180 28-11-2020 14:55:00 4 C 5.72 g/m*3 4 C 3.2 km/h
181 28-11-2020 15:00:00 4 C 5.72 g/m*3 4 C 3.2 km/h
182 28-11-2020 15:05:00 3.9 C 5.68 g/m*3 3.9 C 3.2 km/h
183 28-11-2020 15:10:00 3.9 C 5.68 g/m*3 3.9 C 4.8 km/h
184 28-11-2020 15:15:00 3.9 C 5.68 g/m*3 3.9 C 1.6 km/h
185 28-11-2020 15:20:00 3.9 C 5.68 g/m*3 3.9 C 1.6 km/h
186 28-11-2020 15:25:00 3.9 C 5.68 g/m*3 3.9 C 1.6 km/h
187 28-11-2020 15:30:00 3.9 C 5.68 g/m*3 3.9 C 0 km/h
188 28-11-2020 15:35:00 3.9 C 5.68 g/m*3 3.9 C 0 km/h
189 28-11-2020 15:40:00 3.9 C 5.68 g/m*3 3.9 C 0 km/h
190 28-11-2020 15:45:00 3.8 C 5.65 g/m*3 3.8 C 0 km/h
191 28-11-2020 15:50:00 3.8 C 5.65 g/m*3 3.8 C 0 km/h
192 28-11-2020 15:55:00 3.7 C 5.61 g/m*3 3.7 C 0 km/h
193 28-11-2020 16:00:00 3.7 C 5.61 g/m*3 3.7 C 0 km/h
194 28-11-2020 16:05:00 3.7 C 5.61 g/m*3 3.7 C 0 km/h
195 28-11-2020 16:10:00 3.6 C 5.57 g/m*3 3.6 C 0 km/h
196 28-11-2020 16:15:00 3.6 C 5.63 g/m*3 3.6 C 0 km/h
197 28-11-2020 16:20:00 3.6 C 5.63 g/m*3 3.6 C 4.8 km/h
198 28-11-2020 16:25:00 3.6 C 5.63 g/m*3 3.6 C 1.6 km/h
199 28-11-2020 16:30:00 3.6 C 5.63 g/m*3 3.6 C 0 km/h
200 28-11-2020 16:35:00 3.6 C 5.63 g/m*3 3.6 C 1.6 km/h
Sensor: Nr:Datum:Temp:Abs-Feuchte:Windchill:Wind:
Aussen-T/F 201 28-11-2020 16:40:00 3.6 C 5.63 g/m*3 3.6 C 3.2 km/h
202 28-11-2020 16:45:00 3.5 C 5.6 g/m*3 3.5 C 0 km/h
203 28-11-2020 16:50:00 3.5 C 5.6 g/m*3 3.5 C 1.6 km/h
204 28-11-2020 16:55:00 3.5 C 5.6 g/m*3 3.5 C 0 km/h
205 28-11-2020 17:00:00 3.4 C 5.56 g/m*3 3.4 C 0 km/h
206 28-11-2020 17:05:00 3.4 C 5.56 g/m*3 3.4 C 4.8 km/h
207 28-11-2020 17:10:00 3.4 C 5.56 g/m*3 1.75 C 6.4 km/h
208 28-11-2020 17:15:00 3.4 C 5.56 g/m*3 1.23 C 8.1 km/h
209 28-11-2020 17:20:00 3.3 C 5.52 g/m*3 3.3 C 1.6 km/h
210 28-11-2020 17:25:00 3.3 C 5.52 g/m*3 3.3 C 3.2 km/h
211 28-11-2020 17:30:00 3.3 C 5.52 g/m*3 3.3 C 3.2 km/h
212 28-11-2020 17:35:00 3.3 C 5.58 g/m*3 3.3 C 3.2 km/h
213 28-11-2020 17:40:00 3.3 C 5.58 g/m*3 3.3 C 3.2 km/h
214 28-11-2020 17:45:00 3.3 C 5.58 g/m*3 3.3 C 1.6 km/h
215 28-11-2020 17:50:00 3.3 C 5.58 g/m*3 3.3 C 0 km/h
216 28-11-2020 17:55:00 3.3 C 5.52 g/m*3 3.3 C 4.8 km/h
217 28-11-2020 18:00:00 3.3 C 5.52 g/m*3 3.3 C 1.6 km/h
218 28-11-2020 18:05:00 3.2 C 5.48 g/m*3 3.2 C 0 km/h
219 28-11-2020 18:10:00 3.2 C 5.54 g/m*3 3.2 C 3.2 km/h
220 28-11-2020 18:15:00 3.2 C 5.54 g/m*3 3.2 C 1.6 km/h
221 28-11-2020 18:20:00 3.2 C 5.54 g/m*3 3.2 C 0 km/h
222 28-11-2020 18:25:00 3.2 C 5.54 g/m*3 3.2 C 3.2 km/h
223 28-11-2020 18:30:00 3.2 C 5.54 g/m*3 3.2 C 4.8 km/h
224 28-11-2020 18:35:00 3.2 C 5.54 g/m*3 3.2 C 3.2 km/h
225 28-11-2020 18:40:00 3.2 C 5.54 g/m*3 3.2 C 4.8 km/h
Sensor: Nr:Datum:Temp:Abs-Feuchte:Windchill:Wind:
Aussen-T/F 226 28-11-2020 18:45:00 3.2 C 5.54 g/m*3 3.2 C 1.6 km/h
227 28-11-2020 18:50:00 3.2 C 5.54 g/m*3 3.2 C 1.6 km/h
228 28-11-2020 18:55:00 3.1 C 5.51 g/m*3 1.4 C 6.4 km/h
229 28-11-2020 19:00:00 3.1 C 5.51 g/m*3 3.1 C 3.2 km/h
230 28-11-2020 19:05:00 3.1 C 5.51 g/m*3 3.1 C 4.8 km/h
231 28-11-2020 19:10:00 3.1 C 5.51 g/m*3 3.1 C 0 km/h
232 28-11-2020 19:15:00 3.1 C 5.51 g/m*3 3.1 C 0 km/h
233 28-11-2020 19:20:00 3 C 5.47 g/m*3 3 C 1.6 km/h
234 28-11-2020 19:25:00 3 C 5.47 g/m*3 1.28 C 6.4 km/h
235 28-11-2020 19:30:00 3 C 5.47 g/m*3 1.28 C 6.4 km/h
236 28-11-2020 19:35:00 3 C 5.47 g/m*3 0.76 C 8.1 km/h
237 28-11-2020 19:40:00 2.9 C 5.43 g/m*3 2.9 C 3.2 km/h
238 28-11-2020 19:45:00 2.9 C 5.43 g/m*3 2.9 C 3.2 km/h
239 28-11-2020 19:50:00 2.9 C 5.49 g/m*3 2.9 C 4.8 km/h
240 28-11-2020 19:55:00 3 C 5.53 g/m*3 3 C 3.2 km/h
241 28-11-2020 20:00:00 3 C 5.53 g/m*3 3 C 1.6 km/h
242 28-11-2020 20:05:00 3 C 5.53 g/m*3 3 C 0 km/h
243 28-11-2020 20:10:00 3 C 5.53 g/m*3 3 C 0 km/h
244 28-11-2020 20:15:00 3 C 5.53 g/m*3 3 C 0 km/h
245 28-11-2020 20:20:00 3 C 5.53 g/m*3 3 C 0 km/h
246 28-11-2020 20:25:00 3.1 C 5.57 g/m*3 3.1 C 0 km/h
247 28-11-2020 20:30:00 3.1 C 5.57 g/m*3 3.1 C 1.6 km/h
248 28-11-2020 20:35:00 3.1 C 5.57 g/m*3 3.1 C 0 km/h
249 28-11-2020 20:40:00 3.1 C 5.57 g/m*3 3.1 C 4.8 km/h
250 28-11-2020 20:45:00 3.1 C 5.57 g/m*3 3.1 C 3.2 km/h
Sensor: Nr:Datum:Temp:Abs-Feuchte:Windchill:Wind:
Aussen-T/F 251 28-11-2020 20:50:00 3.2 C 5.6 g/m*3 3.2 C 3.2 km/h
252 28-11-2020 20:55:00 3.2 C 5.6 g/m*3 3.2 C 1.6 km/h
253 28-11-2020 21:00:00 3.2 C 5.6 g/m*3 3.2 C 0 km/h
254 28-11-2020 21:05:00 3.3 C 5.64 g/m*3 3.3 C 1.6 km/h
255 28-11-2020 21:10:00 3.3 C 5.64 g/m*3 3.3 C 1.6 km/h
256 28-11-2020 21:15:00 3.3 C 5.64 g/m*3 3.3 C 4.8 km/h
257 28-11-2020 21:20:00 3.3 C 5.64 g/m*3 3.3 C 0 km/h
258 28-11-2020 21:25:00 3.3 C 5.64 g/m*3 3.3 C 1.6 km/h
259 28-11-2020 21:30:00 3.4 C 5.68 g/m*3 3.4 C 0 km/h
260 28-11-2020 21:35:00 3.4 C 5.68 g/m*3 3.4 C 1.6 km/h
261 28-11-2020 21:40:00 3.4 C 5.68 g/m*3 3.4 C 0 km/h
262 28-11-2020 21:45:00 3.4 C 5.68 g/m*3 3.4 C 0 km/h
263 28-11-2020 21:50:00 3.5 C 5.72 g/m*3 3.5 C 3.2 km/h
264 28-11-2020 21:55:00 3.5 C 5.72 g/m*3 3.5 C 1.6 km/h
265 28-11-2020 22:00:00 3.5 C 5.72 g/m*3 3.5 C 0 km/h
266 28-11-2020 22:05:00 3.6 C 5.76 g/m*3 3.6 C 0 km/h
267 28-11-2020 22:10:00 3.6 C 5.76 g/m*3 3.6 C 3.2 km/h
268 28-11-2020 22:15:00 3.6 C 5.76 g/m*3 3.6 C 0 km/h
269 28-11-2020 22:20:00 3.6 C 5.76 g/m*3 3.6 C 0 km/h
270 28-11-2020 22:25:00 3.6 C 5.76 g/m*3 3.6 C 0 km/h
271 28-11-2020 22:30:00 3.7 C 5.8 g/m*3 3.7 C 0 km/h
272 28-11-2020 22:35:00 3.6 C 5.76 g/m*3 3.6 C 1.6 km/h
273 28-11-2020 22:40:00 3.7 C 5.8 g/m*3 3.7 C 0 km/h
274 28-11-2020 22:45:00 3.7 C 5.8 g/m*3 3.7 C 0 km/h
275 28-11-2020 22:50:00 3.7 C 5.8 g/m*3 3.7 C 0 km/h
Sensor: Nr:Datum:Temp:Abs-Feuchte:Windchill:Wind:
Aussen-T/F 276 28-11-2020 22:55:00 3.7 C 5.8 g/m*3 3.7 C 0 km/h
277 28-11-2020 23:00:00 3.7 C 5.8 g/m*3 3.7 C 0 km/h
278 28-11-2020 23:05:00 3.7 C 5.8 g/m*3 3.7 C 0 km/h
279 28-11-2020 23:10:00 3.7 C 5.8 g/m*3 3.7 C 1.6 km/h
280 28-11-2020 23:15:00 3.7 C 5.8 g/m*3 3.7 C 0 km/h
281 28-11-2020 23:20:00 3.8 C 5.83 g/m*3 3.8 C 0 km/h
282 28-11-2020 23:25:00 3.8 C 5.83 g/m*3 3.8 C 0 km/h
283 28-11-2020 23:30:00 3.8 C 5.83 g/m*3 3.8 C 1.6 km/h
284 28-11-2020 23:35:00 3.8 C 5.77 g/m*3 3.8 C 3.2 km/h
285 28-11-2020 23:40:00 3.8 C 5.77 g/m*3 3.8 C 1.6 km/h
286 28-11-2020 23:45:00 3.8 C 5.77 g/m*3 3.8 C 4.8 km/h
287 28-11-2020 23:50:00 3.8 C 5.77 g/m*3 3.8 C 0 km/h
288 28-11-2020 23:55:00 3.8 C 5.77 g/m*3 3.8 C 0 km/h
289 29-11-2020 00:00:00 3.8 C 5.77 g/m*3 3.8 C 0 km/h
290 29-11-2020 00:05:00 3.8 C 5.77 g/m*3 3.8 C 4.8 km/h
291 29-11-2020 00:10:00 3.8 C 5.77 g/m*3 3.8 C 4.8 km/h
292 29-11-2020 00:15:00 3.9 C 5.81 g/m*3 3.9 C 1.6 km/h
293 29-11-2020 00:20:00 3.8 C 5.71 g/m*3 3.8 C 4.8 km/h
294 29-11-2020 00:25:00 3.8 C 5.71 g/m*3 3.8 C 4.8 km/h
295 29-11-2020 00:30:00 3.9 C 5.75 g/m*3 3.9 C 4.8 km/h
296 29-11-2020 00:35:00 3.9 C 5.75 g/m*3 3.9 C 4.8 km/h
297 29-11-2020 00:40:00 3.9 C 5.75 g/m*3 2.32 C 6.4 km/h
298 29-11-2020 00:45:00 3.9 C 5.75 g/m*3 3.9 C 3.2 km/h
299 29-11-2020 00:50:00 3.9 C 5.75 g/m*3 3.9 C 1.6 km/h
300 29-11-2020 00:55:00 3.9 C 5.75 g/m*3 2.32 C 6.4 km/h
Sensor: Nr:Datum:Temp:Abs-Feuchte:Windchill:Wind:
Aussen-T/F 301 29-11-2020 01:00:00 3.9 C 5.75 g/m*3 3.9 C 3.2 km/h
302 29-11-2020 01:05:00 3.8 C 5.71 g/m*3 3.8 C 1.6 km/h
303 29-11-2020 01:10:00 3.8 C 5.71 g/m*3 3.8 C 4.8 km/h
304 29-11-2020 01:15:00 3.8 C 5.71 g/m*3 3.8 C 3.2 km/h
305 29-11-2020 01:20:00 3.8 C 5.71 g/m*3 0.94 C 11.3 km/h
306 29-11-2020 01:25:00 3.7 C 5.55 g/m*3 0.82 C 11.3 km/h
307 29-11-2020 01:30:00 3.5 C 5.47 g/m*3 0.27 C 12.9 km/h
308 29-11-2020 01:35:00 3.4 C 5.37 g/m*3 0.46 C 11.3 km/h
309 29-11-2020 01:40:00 3.3 C 5.34 g/m*3 0.34 C 11.3 km/h
310 29-11-2020 01:45:00 3.2 C 5.3 g/m*3 0.58 C 9.7 km/h
311 29-11-2020 01:50:00 3.2 C 5.3 g/m*3 1.51 C 6.4 km/h
312 29-11-2020 01:55:00 3.1 C 5.27 g/m*3 3.1 C 3.2 km/h
313 29-11-2020 02:00:00 3.1 C 5.27 g/m*3 3.1 C 1.6 km/h
314 29-11-2020 02:05:00 3.1 C 5.27 g/m*3 3.1 C 3.2 km/h
315 29-11-2020 02:10:00 3 C 5.23 g/m*3 1.28 C 6.4 km/h
316 29-11-2020 02:15:00 2.9 C 5.2 g/m*3 2.9 C 3.2 km/h
317 29-11-2020 02:20:00 2.9 C 5.2 g/m*3 2.9 C 3.2 km/h
318 29-11-2020 02:25:00 2.9 C 5.2 g/m*3 2.9 C 1.6 km/h
319 29-11-2020 02:30:00 2.8 C 5.16 g/m*3 1.05 C 6.4 km/h
320 29-11-2020 02:35:00 2.8 C 5.1 g/m*3 1.05 C 6.4 km/h
321 29-11-2020 02:40:00 2.8 C 5.1 g/m*3 2.8 C 3.2 km/h
322 29-11-2020 02:45:00 2.7 C 5.07 g/m*3 -0.02 C 9.7 km/h
323 29-11-2020 02:50:00 2.7 C 5.07 g/m*3 2.7 C 4.8 km/h
324 29-11-2020 02:55:00 2.7 C 5.07 g/m*3 2.7 C 3.2 km/h
325 29-11-2020 03:00:00 2.7 C 5.07 g/m*3 0.4 C 8.1 km/h
Sensor: Nr:Datum:Temp:Abs-Feuchte:Windchill:Wind:
Aussen-T/F 326 29-11-2020 03:05:00 2.7 C 5.13 g/m*3 2.7 C 1.6 km/h
327 29-11-2020 03:10:00 2.7 C 5.07 g/m*3 0.94 C 6.4 km/h
328 29-11-2020 03:15:00 2.7 C 5.07 g/m*3 2.7 C 3.2 km/h
329 29-11-2020 03:20:00 2.7 C 5.07 g/m*3 2.7 C 4.8 km/h
330 29-11-2020 03:25:00 2.7 C 5.07 g/m*3 0.4 C 8.1 km/h
331 29-11-2020 03:30:00 2.7 C 5.07 g/m*3 2.7 C 3.2 km/h
332 29-11-2020 03:35:00 2.7 C 5.07 g/m*3 2.7 C 1.6 km/h
333 29-11-2020 03:40:00 2.7 C 5.07 g/m*3 2.7 C 0 km/h
334 29-11-2020 03:45:00 2.7 C 5.07 g/m*3 2.7 C 1.6 km/h
335 29-11-2020 03:50:00 2.7 C 5.07 g/m*3 0.94 C 6.4 km/h
336 29-11-2020 03:55:00 2.7 C 5.01 g/m*3 0.4 C 8.1 km/h
337 29-11-2020 04:00:00 2.6 C 5.03 g/m*3 2.6 C 1.6 km/h
338 29-11-2020 04:05:00 2.6 C 4.98 g/m*3 0.29 C 8.1 km/h
339 29-11-2020 04:10:00 2.6 C 4.98 g/m*3 2.6 C 3.2 km/h
340 29-11-2020 04:15:00 2.6 C 4.98 g/m*3 0.29 C 8.1 km/h
341 29-11-2020 04:20:00 2.5 C 4.94 g/m*3 0.71 C 6.4 km/h
342 29-11-2020 04:25:00 2.5 C 4.94 g/m*3 0.71 C 6.4 km/h
343 29-11-2020 04:30:00 2.4 C 4.91 g/m*3 0.59 C 6.4 km/h
344 29-11-2020 04:35:00 2.4 C 4.91 g/m*3 2.4 C 1.6 km/h
345 29-11-2020 04:40:00 2.4 C 4.91 g/m*3 0.59 C 6.4 km/h
346 29-11-2020 04:45:00 2.4 C 4.91 g/m*3 2.4 C 0 km/h
347 29-11-2020 04:50:00 2.4 C 4.91 g/m*3 2.4 C 1.6 km/h
348 29-11-2020 04:55:00 2.4 C 4.91 g/m*3 2.4 C 0 km/h
349 29-11-2020 05:00:00 2.3 C 4.88 g/m*3 2.3 C 0 km/h
350 29-11-2020 05:05:00 2.3 C 4.88 g/m*3 2.3 C 1.6 km/h
Sensor: Nr:Datum:Temp:Abs-Feuchte:Windchill:Wind:
Aussen-T/F 351 29-11-2020 05:10:00 2.3 C 4.88 g/m*3 2.3 C 0 km/h
352 29-11-2020 05:15:00 2.3 C 4.88 g/m*3 2.3 C 3.2 km/h
353 29-11-2020 05:20:00 2.3 C 4.88 g/m*3 2.3 C 0 km/h
354 29-11-2020 05:25:00 2.3 C 4.88 g/m*3 2.3 C 3.2 km/h
355 29-11-2020 05:30:00 2.3 C 4.88 g/m*3 2.3 C 1.6 km/h
356 29-11-2020 05:35:00 2.3 C 4.88 g/m*3 2.3 C 3.2 km/h
357 29-11-2020 05:40:00 2.3 C 4.88 g/m*3 -0.49 C 9.7 km/h
358 29-11-2020 05:45:00 2.3 C 4.88 g/m*3 2.3 C 4.8 km/h
359 29-11-2020 05:50:00 2.3 C 4.82 g/m*3 2.3 C 4.8 km/h
360 29-11-2020 05:55:00 2.3 C 4.82 g/m*3 2.3 C 3.2 km/h
361 29-11-2020 06:00:00 2.3 C 4.88 g/m*3 2.3 C 3.2 km/h
362 29-11-2020 06:05:00 2.3 C 4.88 g/m*3 2.3 C 1.6 km/h
363 29-11-2020 06:10:00 2.2 C 4.79 g/m*3 2.2 C 4.8 km/h
364 29-11-2020 06:15:00 2.2 C 4.79 g/m*3 2.2 C 4.8 km/h
365 29-11-2020 06:20:00 2.2 C 4.84 g/m*3 2.2 C 4.8 km/h
366 29-11-2020 06:25:00 2.2 C 4.79 g/m*3 2.2 C 0 km/h
367 29-11-2020 06:30:00 2.2 C 4.79 g/m*3 2.2 C 3.2 km/h
368 29-11-2020 06:35:00 2.2 C 4.79 g/m*3 2.2 C 1.6 km/h
369 29-11-2020 06:40:00 2.1 C 4.76 g/m*3 2.1 C 4.8 km/h
370 29-11-2020 06:45:00 2.1 C 4.76 g/m*3 2.1 C 3.2 km/h
371 29-11-2020 06:50:00 2.1 C 4.76 g/m*3 2.1 C 0 km/h
372 29-11-2020 06:55:00 2.1 C 4.76 g/m*3 2.1 C 0 km/h
373 29-11-2020 07:00:00 2.1 C 4.76 g/m*3 2.1 C 3.2 km/h
374 29-11-2020 07:05:00 2 C 4.72 g/m*3 2 C 3.2 km/h
375 29-11-2020 07:10:00 2 C 4.72 g/m*3 2 C 3.2 km/h
Sensor: Nr:Datum:Temp:Abs-Feuchte:Windchill:Wind:
Aussen-T/F 376 29-11-2020 07:15:00 2 C 4.72 g/m*3 2 C 1.6 km/h
377 29-11-2020 07:20:00 1.9 C 4.69 g/m*3 1.9 C 3.2 km/h
378 29-11-2020 07:25:00 1.9 C 4.64 g/m*3 1.9 C 4.8 km/h
379 29-11-2020 07:30:00 1.9 C 4.69 g/m*3 1.9 C 1.6 km/h
380 29-11-2020 07:35:00 1.9 C 4.69 g/m*3 1.9 C 0 km/h
381 29-11-2020 07:40:00 1.9 C 4.64 g/m*3 1.9 C 3.2 km/h
382 29-11-2020 07:45:00 1.8 C 4.6 g/m*3 1.8 C 3.2 km/h
383 29-11-2020 07:50:00 1.8 C 4.6 g/m*3 1.8 C 4.8 km/h
384 29-11-2020 07:55:00 1.8 C 4.6 g/m*3 -0.65 C 8.1 km/h
385 29-11-2020 08:00:00 1.8 C 4.6 g/m*3 1.8 C 4.8 km/h
386 29-11-2020 08:05:00 1.8 C 4.6 g/m*3 1.8 C 0 km/h
387 29-11-2020 08:10:00 1.8 C 4.6 g/m*3 1.8 C 0 km/h
388 29-11-2020 08:15:00 1.8 C 4.6 g/m*3 1.8 C 1.6 km/h
389 29-11-2020 08:20:00 1.7 C 4.57 g/m*3 -1.21 C 9.7 km/h
390 29-11-2020 08:25:00 1.7 C 4.57 g/m*3 1.7 C 0 km/h
391 29-11-2020 08:30:00 1.7 C 4.57 g/m*3 -1.59 C 11.3 km/h
392 29-11-2020 08:35:00 1.7 C 4.57 g/m*3 1.7 C 3.2 km/h
393 29-11-2020 08:40:00 1.7 C 4.57 g/m*3 1.7 C 3.2 km/h
394 29-11-2020 08:45:00 1.7 C 4.52 g/m*3 -0.77 C 8.1 km/h
395 29-11-2020 08:50:00 1.6 C 4.49 g/m*3 -0.33 C 6.4 km/h
396 29-11-2020 08:55:00 1.6 C 4.49 g/m*3 1.6 C 3.2 km/h
397 29-11-2020 09:00:00 1.6 C 4.49 g/m*3 1.6 C 4.8 km/h
398 29-11-2020 09:05:00 1.6 C 4.49 g/m*3 1.6 C 3.2 km/h
399 29-11-2020 09:10:00 1.6 C 4.49 g/m*3 1.6 C 3.2 km/h
400 29-11-2020 09:15:00 1.6 C 4.49 g/m*3 -0.33 C 6.4 km/h
Sensor: Nr:Datum:Temp:Abs-Feuchte:Windchill:Wind:
Aussen-T/F 401 29-11-2020 09:20:00 1.6 C 4.49 g/m*3 1.6 C 3.2 km/h
402 29-11-2020 09:25:00 1.6 C 4.49 g/m*3 1.6 C 3.2 km/h
403 29-11-2020 09:30:00 1.6 C 4.49 g/m*3 -0.33 C 6.4 km/h
404 29-11-2020 09:35:00 1.5 C 4.4 g/m*3 -1.01 C 8.1 km/h
405 29-11-2020 09:40:00 1.5 C 4.4 g/m*3 -1.01 C 8.1 km/h
406 29-11-2020 09:45:00 1.6 C 4.49 g/m*3 1.6 C 3.2 km/h
407 29-11-2020 09:50:00 1.6 C 4.43 g/m*3 -0.89 C 8.1 km/h
408 29-11-2020 09:55:00 1.6 C 4.43 g/m*3 1.6 C 4.8 km/h
409 29-11-2020 10:00:00 1.6 C 4.43 g/m*3 -0.33 C 6.4 km/h
410 29-11-2020 10:05:00 1.7 C 4.46 g/m*3 1.7 C 3.2 km/h
411 29-11-2020 10:10:00 1.7 C 4.46 g/m*3 -0.77 C 8.1 km/h
412 29-11-2020 10:15:00 1.7 C 4.46 g/m*3 -0.22 C 6.4 km/h
413 29-11-2020 10:20:00 1.7 C 4.46 g/m*3 -0.22 C 6.4 km/h
414 29-11-2020 10:25:00 1.7 C 4.46 g/m*3 1.7 C 3.2 km/h
415 29-11-2020 10:30:00 1.8 C 4.49 g/m*3 -0.65 C 8.1 km/h
416 29-11-2020 10:35:00 1.8 C 4.49 g/m*3 -0.1 C 6.4 km/h
417 29-11-2020 10:40:00 1.8 C 4.49 g/m*3 1.8 C 4.8 km/h
418 29-11-2020 10:45:00 1.9 C 4.53 g/m*3 1.9 C 3.2 km/h
419 29-11-2020 10:50:00 1.9 C 4.47 g/m*3 -0.97 C 9.7 km/h
420 29-11-2020 10:55:00 2 C 4.56 g/m*3 2 C 3.2 km/h
421 29-11-2020 11:00:00 2 C 4.45 g/m*3 -1.23 C 11.3 km/h
422 29-11-2020 11:05:00 2 C 4.45 g/m*3 -1.23 C 11.3 km/h
423 29-11-2020 11:10:00 2 C 4.5 g/m*3 -0.42 C 8.1 km/h
424 29-11-2020 11:15:00 2.1 C 4.48 g/m*3 0.24 C 6.4 km/h
425 29-11-2020 11:20:00 2.1 C 4.48 g/m*3 0.24 C 6.4 km/h
Sensor: Nr:Datum:Temp:Abs-Feuchte:Windchill:Wind:
Aussen-T/F 426 29-11-2020 11:25:00 2.1 C 4.48 g/m*3 -0.3 C 8.1 km/h
427 29-11-2020 11:30:00 2.1 C 4.48 g/m*3 0.24 C 6.4 km/h
428 29-11-2020 11:35:00 2.1 C 4.48 g/m*3 -0.73 C 9.7 km/h
429 29-11-2020 11:40:00 2.1 C 4.48 g/m*3 2.1 C 3.2 km/h
430 29-11-2020 11:45:00 2.2 C 4.51 g/m*3 2.2 C 4.8 km/h
431 29-11-2020 11:50:00 2.2 C 4.45 g/m*3 -0.18 C 8.1 km/h
432 29-11-2020 11:55:00 2.1 C 4.48 g/m*3 0.24 C 6.4 km/h
433 29-11-2020 12:00:00 2.1 C 4.42 g/m*3 2.1 C 4.8 km/h
434 29-11-2020 12:05:00 2.2 C 4.45 g/m*3 -0.61 C 9.7 km/h
435 29-11-2020 12:10:00 2.2 C 4.45 g/m*3 2.2 C 1.6 km/h
436 29-11-2020 12:15:00 2.2 C 4.45 g/m*3 -0.18 C 8.1 km/h
437 29-11-2020 12:20:00 2.3 C 4.48 g/m*3 0.47 C 6.4 km/h
438 29-11-2020 12:25:00 2.2 C 4.45 g/m*3 -0.18 C 8.1 km/h
439 29-11-2020 12:30:00 2.3 C 4.48 g/m*3 0.47 C 6.4 km/h
440 29-11-2020 12:35:00 2.3 C 4.54 g/m*3 -0.07 C 8.1 km/h
441 29-11-2020 12:40:00 2.4 C 4.51 g/m*3 2.4 C 4.8 km/h
442 29-11-2020 12:45:00 2.4 C 4.51 g/m*3 2.4 C 4.8 km/h
443 29-11-2020 12:50:00 2.5 C 4.54 g/m*3 2.5 C 4.8 km/h
444 29-11-2020 12:55:00 2.5 C 4.48 g/m*3 2.5 C 4.8 km/h
445 29-11-2020 13:00:00 2.6 C 4.57 g/m*3 0.82 C 6.4 km/h
446 29-11-2020 13:05:00 2.6 C 4.51 g/m*3 -0.14 C 9.7 km/h
447 29-11-2020 13:10:00 2.6 C 4.46 g/m*3 -0.5 C 11.3 km/h
448 29-11-2020 13:15:00 2.5 C 4.48 g/m*3 0.17 C 8.1 km/h
449 29-11-2020 13:20:00 2.5 C 4.48 g/m*3 0.71 C 6.4 km/h
450 29-11-2020 13:25:00 2.6 C 4.51 g/m*3 -0.83 C 12.9 km/h
Sensor: Nr:Datum:Temp:Abs-Feuchte:Windchill:Wind:
Aussen-T/F 451 29-11-2020 13:30:00 2.6 C 4.51 g/m*3 -0.14 C 9.7 km/h
452 29-11-2020 13:35:00 2.6 C 4.46 g/m*3 0.29 C 8.1 km/h
453 29-11-2020 13:40:00 2.6 C 4.46 g/m*3 -0.14 C 9.7 km/h
454 29-11-2020 13:45:00 2.6 C 4.46 g/m*3 0.29 C 8.1 km/h
455 29-11-2020 13:50:00 2.6 C 4.46 g/m*3 0.29 C 8.1 km/h
456 29-11-2020 13:55:00 2.6 C 4.46 g/m*3 0.29 C 8.1 km/h
457 29-11-2020 14:00:00 2.6 C 4.46 g/m*3 2.6 C 3.2 km/h
458 29-11-2020 14:05:00 2.6 C 4.46 g/m*3 2.6 C 4.8 km/h
459 29-11-2020 14:10:00 2.6 C 4.46 g/m*3 0.82 C 6.4 km/h
460 29-11-2020 14:15:00 2.6 C 4.46 g/m*3 0.82 C 6.4 km/h
461 29-11-2020 14:20:00 2.6 C 4.4 g/m*3 -0.14 C 9.7 km/h
462 29-11-2020 14:25:00 2.6 C 4.46 g/m*3 0.82 C 6.4 km/h
463 29-11-2020 14:30:00 2.6 C 4.46 g/m*3 2.6 C 4.8 km/h
464 29-11-2020 14:35:00 2.6 C 4.46 g/m*3 2.6 C 3.2 km/h
465 29-11-2020 14:40:00 2.6 C 4.46 g/m*3 2.6 C 3.2 km/h
466 29-11-2020 14:45:00 2.6 C 4.46 g/m*3 2.6 C 3.2 km/h
467 29-11-2020 14:50:00 2.6 C 4.4 g/m*3 0.82 C 6.4 km/h
468 29-11-2020 14:55:00 2.5 C 4.37 g/m*3 -0.95 C 12.9 km/h
469 29-11-2020 15:00:00 2.4 C 4.34 g/m*3 0.59 C 6.4 km/h
470 29-11-2020 15:05:00 2.4 C 4.4 g/m*3 2.4 C 3.2 km/h
471 29-11-2020 15:10:00 2.4 C 4.4 g/m*3 2.4 C 0 km/h
472 29-11-2020 15:15:00 2.4 C 4.4 g/m*3 2.4 C 3.2 km/h
473 29-11-2020 15:20:00 2.4 C 4.4 g/m*3 2.4 C 4.8 km/h
474 29-11-2020 15:25:00 2.4 C 4.4 g/m*3 0.05 C 8.1 km/h
475 29-11-2020 15:30:00 2.3 C 4.37 g/m*3 2.3 C 4.8 km/h
Sensor: Nr:Datum:Temp:Abs-Feuchte:Windchill:Wind:
Aussen-T/F 476 29-11-2020 15:35:00 2.3 C 4.31 g/m*3 2.3 C 4.8 km/h
477 29-11-2020 15:40:00 2.3 C 4.37 g/m*3 2.3 C 3.2 km/h
478 29-11-2020 15:45:00 2.2 C 4.39 g/m*3 2.2 C 0 km/h
479 29-11-2020 15:50:00 2.2 C 4.39 g/m*3 2.2 C 0 km/h
480 29-11-2020 15:55:00 1.9 C 4.3 g/m*3 1.9 C 0 km/h
481 29-11-2020 16:00:00 1.7 C 4.25 g/m*3 1.7 C 1.6 km/h
482 29-11-2020 16:05:00 1.4 C 4.21 g/m*3 1.4 C 3.2 km/h
483 29-11-2020 16:10:00 1.2 C 4.21 g/m*3 1.2 C 3.2 km/h
484 29-11-2020 16:15:00 1 C 4.15 g/m*3 1 C 3.2 km/h
485 29-11-2020 16:20:00 0.8 C 4.15 g/m*3 0.8 C 1.6 km/h
486 29-11-2020 16:25:00 0.6 C 4.14 g/m*3 0.6 C 3.2 km/h
487 29-11-2020 16:30:00 0.4 C 4.08 g/m*3 0.4 C 3.2 km/h
488 29-11-2020 16:35:00 0.2 C 4.08 g/m*3 0.2 C 1.6 km/h
489 29-11-2020 16:40:00 0.1 C 4.05 g/m*3 0.1 C 4.8 km/h
490 29-11-2020 16:45:00 -0.1 C 4.04 g/m*3 -0.1 C 4.8 km/h
491 29-11-2020 16:50:00 -0.2 C 4.01 g/m*3 -0.2 C 1.6 km/h
492 29-11-2020 16:55:00 -0.3 C 3.99 g/m*3 -0.3 C 1.6 km/h
493 29-11-2020 17:00:00 -0.4 C 4.01 g/m*3 -0.4 C 0 km/h
494 29-11-2020 17:05:00 -0.5 C 3.98 g/m*3 -0.5 C 0 km/h
495 29-11-2020 17:10:00 -0.6 C 4 g/m*3 -0.6 C 0 km/h
496 29-11-2020 17:15:00 -0.6 C 4 g/m*3 -0.6 C 3.2 km/h
497 29-11-2020 17:20:00 -0.7 C 3.97 g/m*3 -0.7 C 1.6 km/h
498 29-11-2020 17:25:00 -0.8 C 3.94 g/m*3 -0.8 C 1.6 km/h
499 29-11-2020 17:30:00 -0.9 C 3.96 g/m*3 -0.9 C 3.2 km/h
500 29-11-2020 17:35:00 -1 C 3.93 g/m*3 -1 C 1.6 km/h
Sensor: Nr:Datum:Temp:Abs-Feuchte:Windchill:Wind:
Aussen-T/F 501 29-11-2020 17:40:00 -1.1 C 3.95 g/m*3 -1.1 C 1.6 km/h
502 29-11-2020 17:45:00 -1.2 C 3.92 g/m*3 -1.2 C 1.6 km/h
503 29-11-2020 17:50:00 -1.2 C 3.92 g/m*3 -1.2 C 0 km/h
504 29-11-2020 17:55:00 -1.3 C 3.9 g/m*3 -1.3 C 0 km/h
505 29-11-2020 18:00:00 -1.4 C 3.91 g/m*3 -1.4 C 0 km/h
506 29-11-2020 18:05:00 -1.4 C 3.91 g/m*3 -1.4 C 0 km/h
507 29-11-2020 18:10:00 -1.5 C 3.89 g/m*3 -1.5 C 0 km/h
508 29-11-2020 18:15:00 -1.6 C 3.86 g/m*3 -1.6 C 0 km/h
509 29-11-2020 18:20:00 -1.7 C 3.83 g/m*3 -1.7 C 0 km/h
510 29-11-2020 18:25:00 -1.7 C 3.83 g/m*3 -1.7 C 0 km/h
511 29-11-2020 18:30:00 -1.8 C 3.85 g/m*3 -1.8 C 0 km/h
512 29-11-2020 18:35:00 -1.8 C 3.8 g/m*3 -1.8 C 0 km/h
513 29-11-2020 18:40:00 -1.9 C 3.82 g/m*3 -1.9 C 0 km/h
514 29-11-2020 18:45:00 -2 C 3.79 g/m*3 -2 C 0 km/h
515 29-11-2020 18:50:00 -2.1 C 3.77 g/m*3 -2.1 C 0 km/h
516 29-11-2020 18:55:00 -2.1 C 3.77 g/m*3 -2.1 C 0 km/h
517 29-11-2020 19:00:00 -2.2 C 3.74 g/m*3 -2.2 C 0 km/h
518 29-11-2020 19:05:00 -2.2 C 3.74 g/m*3 -2.2 C 0 km/h
519 29-11-2020 19:10:00 -2.3 C 3.76 g/m*3 -2.3 C 0 km/h
520 29-11-2020 19:15:00 -2.3 C 3.76 g/m*3 -2.3 C 0 km/h
521 29-11-2020 19:20:00 -2.3 C 3.76 g/m*3 -2.3 C 0 km/h
522 29-11-2020 19:25:00 -2.3 C 3.76 g/m*3 -2.3 C 0 km/h
523 29-11-2020 19:30:00 -2.3 C 3.76 g/m*3 -2.3 C 0 km/h
524 29-11-2020 19:35:00 -2.4 C 3.73 g/m*3 -2.4 C 0 km/h
525 29-11-2020 19:40:00 -2.4 C 3.77 g/m*3 -2.4 C 0 km/h
Sensor: Nr:Datum:Temp:Abs-Feuchte:Windchill:Wind:
Aussen-T/F 526 29-11-2020 19:45:00 -2.4 C 3.77 g/m*3 -2.4 C 0 km/h
527 29-11-2020 19:50:00 -2.5 C 3.74 g/m*3 -2.5 C 0 km/h
528 29-11-2020 19:55:00 -2.5 C 3.74 g/m*3 -2.5 C 0 km/h
529 29-11-2020 20:00:00 -2.6 C 3.72 g/m*3 -2.6 C 0 km/h
530 29-11-2020 20:05:00 -2.6 C 3.72 g/m*3 -2.6 C 0 km/h
531 29-11-2020 20:10:00 -2.6 C 3.72 g/m*3 -2.6 C 0 km/h
532 29-11-2020 20:15:00 -2.7 C 3.69 g/m*3 -2.7 C 0 km/h
533 29-11-2020 20:20:00 -2.7 C 3.69 g/m*3 -2.7 C 0 km/h
534 29-11-2020 20:25:00 -2.7 C 3.69 g/m*3 -2.7 C 3.2 km/h
535 29-11-2020 20:30:00 -2.7 C 3.69 g/m*3 -2.7 C 0 km/h
536 29-11-2020 20:35:00 -2.7 C 3.69 g/m*3 -2.7 C 0 km/h
537 29-11-2020 20:40:00 -2.8 C 3.67 g/m*3 -2.8 C 0 km/h
538 29-11-2020 20:45:00 -2.8 C 3.67 g/m*3 -2.8 C 0 km/h
539 29-11-2020 20:50:00 -2.8 C 3.67 g/m*3 -2.8 C 0 km/h
540 29-11-2020 20:55:00 -2.9 C 3.64 g/m*3 -2.9 C 0 km/h
541 29-11-2020 21:00:00 -2.9 C 3.64 g/m*3 -2.9 C 0 km/h
542 29-11-2020 21:05:00 -3 C 3.61 g/m*3 -3 C 0 km/h
543 29-11-2020 21:10:00 -3.1 C 3.59 g/m*3 -3.1 C 0 km/h
544 29-11-2020 21:15:00 -3.1 C 3.59 g/m*3 -3.1 C 0 km/h
545 29-11-2020 21:20:00 -3.2 C 3.56 g/m*3 -3.2 C 0 km/h
546 29-11-2020 21:25:00 -3.2 C 3.6 g/m*3 -3.2 C 0 km/h
547 29-11-2020 21:30:00 -3.2 C 3.6 g/m*3 -3.2 C 0 km/h
548 29-11-2020 21:35:00 -3.3 C 3.58 g/m*3 -3.3 C 0 km/h
549 29-11-2020 21:40:00 -3.3 C 3.58 g/m*3 -3.3 C 0 km/h
550 29-11-2020 21:45:00 -3.3 C 3.58 g/m*3 -3.3 C 0 km/h
Sensor: Nr:Datum:Temp:Abs-Feuchte:Windchill:Wind:
Aussen-T/F 551 29-11-2020 21:50:00 -3.3 C 3.58 g/m*3 -3.3 C 0 km/h
552 29-11-2020 21:55:00 -3.4 C 3.55 g/m*3 -3.4 C 0 km/h
553 29-11-2020 22:00:00 -3.4 C 3.55 g/m*3 -3.4 C 0 km/h
554 29-11-2020 22:05:00 -3.4 C 3.55 g/m*3 -3.4 C 0 km/h
555 29-11-2020 22:10:00 -3.4 C 3.55 g/m*3 -3.4 C 0 km/h
556 29-11-2020 22:15:00 -3.5 C 3.53 g/m*3 -3.5 C 0 km/h
557 29-11-2020 22:20:00 -3.5 C 3.53 g/m*3 -3.5 C 0 km/h
558 29-11-2020 22:25:00 -3.5 C 3.53 g/m*3 -3.5 C 0 km/h
559 29-11-2020 22:30:00 -3.6 C 3.5 g/m*3 -3.6 C 0 km/h
560 29-11-2020 22:35:00 -3.6 C 3.5 g/m*3 -3.6 C 0 km/h
561 29-11-2020 22:40:00 -3.6 C 3.5 g/m*3 -3.6 C 3.2 km/h
562 29-11-2020 22:45:00 -3.5 C 3.56 g/m*3 -3.5 C 3.2 km/h
563 29-11-2020 22:50:00 -3.3 C 3.61 g/m*3 -3.3 C 0 km/h
564 29-11-2020 22:55:00 -3.3 C 3.61 g/m*3 -3.3 C 0 km/h
565 29-11-2020 23:00:00 -3.4 C 3.59 g/m*3 -3.4 C 0 km/h
566 29-11-2020 23:05:00 -3.4 C 3.59 g/m*3 -3.4 C 0 km/h
567 29-11-2020 23:10:00 -3.5 C 3.56 g/m*3 -3.5 C 0 km/h
568 29-11-2020 23:15:00 -3.6 C 3.5 g/m*3 -3.6 C 0 km/h
569 29-11-2020 23:20:00 -3.6 C 3.54 g/m*3 -3.6 C 0 km/h
570 29-11-2020 23:25:00 -3.6 C 3.54 g/m*3 -3.6 C 0 km/h
571 29-11-2020 23:30:00 -3.6 C 3.54 g/m*3 -3.6 C 0 km/h
572 29-11-2020 23:35:00 -3.6 C 3.54 g/m*3 -3.6 C 0 km/h
573 29-11-2020 23:40:00 -3.6 C 3.54 g/m*3 -3.6 C 0 km/h
574 29-11-2020 23:45:00 -3.6 C 3.54 g/m*3 -3.6 C 0 km/h
575 29-11-2020 23:50:00 -3.6 C 3.54 g/m*3 -3.6 C 0 km/h
Sensor: Nr:Datum:Temp:Abs-Feuchte:Windchill:Wind:
Aussen-T/F 576 29-11-2020 23:55:00 -3.6 C 3.54 g/m*3 -3.6 C 0 km/h
577 30-11-2020 00:00:00 -3.7 C 3.51 g/m*3 -3.7 C 0 km/h
578 30-11-2020 00:05:00 -3.7 C 3.51 g/m*3 -3.7 C 0 km/h
579 30-11-2020 00:10:00 -3.7 C 3.51 g/m*3 -3.7 C 0 km/h
580 30-11-2020 00:15:00 -3.8 C 3.49 g/m*3 -3.8 C 0 km/h
581 30-11-2020 00:20:00 -3.8 C 3.49 g/m*3 -3.8 C 0 km/h
582 30-11-2020 00:25:00 -3.9 C 3.46 g/m*3 -3.9 C 0 km/h
583 30-11-2020 00:30:00 -3.9 C 3.46 g/m*3 -3.9 C 0 km/h
584 30-11-2020 00:35:00 -3.9 C 3.46 g/m*3 -3.9 C 0 km/h
585 30-11-2020 00:40:00 -4 C 3.44 g/m*3 -4 C 0 km/h
586 30-11-2020 00:45:00 -4.1 C 3.41 g/m*3 -4.1 C 0 km/h
587 30-11-2020 00:50:00 -4.1 C 3.41 g/m*3 -4.1 C 0 km/h
588 30-11-2020 00:55:00 -4.2 C 3.39 g/m*3 -4.2 C 0 km/h
589 30-11-2020 01:00:00 -4.2 C 3.39 g/m*3 -4.2 C 0 km/h
590 30-11-2020 01:05:00 -4.2 C 3.39 g/m*3 -4.2 C 0 km/h
591 30-11-2020 01:10:00 -4.3 C 3.37 g/m*3 -4.3 C 0 km/h
592 30-11-2020 01:15:00 -4.3 C 3.37 g/m*3 -4.3 C 0 km/h
593 30-11-2020 01:20:00 -4.3 C 3.37 g/m*3 -4.3 C 0 km/h
594 30-11-2020 01:25:00 -4.3 C 3.37 g/m*3 -4.3 C 0 km/h
595 30-11-2020 01:30:00 -4.4 C 3.34 g/m*3 -4.4 C 0 km/h
596 30-11-2020 01:35:00 -4.4 C 3.34 g/m*3 -4.4 C 0 km/h
597 30-11-2020 01:40:00 -4.4 C 3.34 g/m*3 -4.4 C 0 km/h
598 30-11-2020 01:45:00 -4.4 C 3.34 g/m*3 -4.4 C 0 km/h
599 30-11-2020 01:50:00 -4.3 C 3.37 g/m*3 -4.3 C 0 km/h
600 30-11-2020 01:55:00 -4.2 C 3.39 g/m*3 -4.2 C 0 km/h
Sensor: Nr:Datum:Temp:Abs-Feuchte:Windchill:Wind:
Aussen-T/F 601 30-11-2020 02:00:00 -4.1 C 3.45 g/m*3 -4.1 C 0 km/h
602 30-11-2020 02:05:00 -4.2 C 3.43 g/m*3 -4.2 C 0 km/h
603 30-11-2020 02:10:00 -4.3 C 3.37 g/m*3 -4.3 C 0 km/h
604 30-11-2020 02:15:00 -4.4 C 3.34 g/m*3 -4.4 C 0 km/h
605 30-11-2020 02:20:00 -4.4 C 3.34 g/m*3 -4.4 C 0 km/h
606 30-11-2020 02:25:00 -4.6 C 3.29 g/m*3 -4.6 C 0 km/h
607 30-11-2020 02:30:00 -4.6 C 3.29 g/m*3 -4.6 C 0 km/h
608 30-11-2020 02:35:00 -4.7 C 3.27 g/m*3 -4.7 C 0 km/h
609 30-11-2020 02:40:00 -4.8 C 3.25 g/m*3 -4.8 C 0 km/h
610 30-11-2020 02:45:00 -4.8 C 3.25 g/m*3 -4.8 C 0 km/h
611 30-11-2020 02:50:00 -4.8 C 3.25 g/m*3 -4.8 C 0 km/h
612 30-11-2020 02:55:00 -4.9 C 3.22 g/m*3 -4.9 C 0 km/h
613 30-11-2020 03:00:00 -4.9 C 3.22 g/m*3 -4.9 C 0 km/h
614 30-11-2020 03:05:00 -4.9 C 3.22 g/m*3 -4.9 C 0 km/h
615 30-11-2020 03:10:00 -4.9 C 3.22 g/m*3 -4.9 C 0 km/h
616 30-11-2020 03:15:00 -4.9 C 3.22 g/m*3 -4.9 C 0 km/h
617 30-11-2020 03:20:00 -4.9 C 3.22 g/m*3 -4.9 C 0 km/h
618 30-11-2020 03:25:00 -4.8 C 3.25 g/m*3 -4.8 C 0 km/h
619 30-11-2020 03:30:00 -4.8 C 3.25 g/m*3 -4.8 C 0 km/h
620 30-11-2020 03:35:00 -4.8 C 3.25 g/m*3 -4.8 C 0 km/h
621 30-11-2020 03:40:00 -4.9 C 3.22 g/m*3 -4.9 C 0 km/h
622 30-11-2020 03:45:00 -4.9 C 3.22 g/m*3 -4.9 C 0 km/h
623 30-11-2020 03:50:00 -5 C 3.2 g/m*3 -5 C 0 km/h
624 30-11-2020 03:55:00 -5.1 C 3.18 g/m*3 -5.1 C 0 km/h
625 30-11-2020 04:00:00 -5.1 C 3.18 g/m*3 -5.1 C 0 km/h
Sensor: Nr:Datum:Temp:Abs-Feuchte:Windchill:Wind:
Aussen-T/F 626 30-11-2020 04:05:00 -5.2 C 3.15 g/m*3 -5.2 C 0 km/h
627 30-11-2020 04:10:00 -5.2 C 3.15 g/m*3 -5.2 C 0 km/h
628 30-11-2020 04:15:00 -5.2 C 3.15 g/m*3 -5.2 C 0 km/h
629 30-11-2020 04:20:00 -5.3 C 3.13 g/m*3 -5.3 C 0 km/h
630 30-11-2020 04:25:00 -5.3 C 3.13 g/m*3 -5.3 C 0 km/h
631 30-11-2020 04:30:00 -5.3 C 3.13 g/m*3 -5.3 C 0 km/h
632 30-11-2020 04:35:00 -5.3 C 3.13 g/m*3 -5.3 C 0 km/h
633 30-11-2020 04:40:00 -5.3 C 3.13 g/m*3 -5.3 C 0 km/h
634 30-11-2020 04:45:00 -5.3 C 3.13 g/m*3 -5.3 C 0 km/h
635 30-11-2020 04:50:00 -5.2 C 3.15 g/m*3 -5.2 C 0 km/h
636 30-11-2020 04:55:00 -5.2 C 3.15 g/m*3 -5.2 C 0 km/h
637 30-11-2020 05:00:00 -5.2 C 3.15 g/m*3 -5.2 C 0 km/h
638 30-11-2020 05:05:00 -5.3 C 3.13 g/m*3 -5.3 C 0 km/h
639 30-11-2020 05:10:00 -5.3 C 3.13 g/m*3 -5.3 C 0 km/h
640 30-11-2020 05:15:00 -5.4 C 3.11 g/m*3 -5.4 C 0 km/h
641 30-11-2020 05:20:00 -5.4 C 3.11 g/m*3 -5.4 C 0 km/h
642 30-11-2020 05:25:00 -5.5 C 3.09 g/m*3 -5.5 C 0 km/h
643 30-11-2020 05:30:00 -5.6 C 3.06 g/m*3 -5.6 C 0 km/h
644 30-11-2020 05:35:00 -5.5 C 3.09 g/m*3 -5.5 C 0 km/h
645 30-11-2020 05:40:00 -5.4 C 3.11 g/m*3 -5.4 C 0 km/h
646 30-11-2020 05:45:00 -5.3 C 3.17 g/m*3 -5.3 C 0 km/h
647 30-11-2020 05:50:00 -5.2 C 3.19 g/m*3 -5.2 C 0 km/h
648 30-11-2020 05:55:00 -5.2 C 3.19 g/m*3 -5.2 C 0 km/h
649 30-11-2020 06:00:00 -5.2 C 3.19 g/m*3 -5.2 C 0 km/h
650 30-11-2020 06:05:00 -5.2 C 3.19 g/m*3 -5.2 C 0 km/h
Sensor: Nr:Datum:Temp:Abs-Feuchte:Windchill:Wind:
Aussen-T/F 651 30-11-2020 06:10:00 -5.1 C 3.21 g/m*3 -5.1 C 0 km/h
652 30-11-2020 06:15:00 -5.1 C 3.21 g/m*3 -5.1 C 0 km/h
653 30-11-2020 06:20:00 -5.1 C 3.21 g/m*3 -5.1 C 0 km/h
654 30-11-2020 06:25:00 -5.1 C 3.21 g/m*3 -5.1 C 0 km/h
655 30-11-2020 06:30:00 -5.2 C 3.15 g/m*3 -5.2 C 0 km/h
656 30-11-2020 06:35:00 -5.3 C 3.13 g/m*3 -5.3 C 0 km/h
657 30-11-2020 06:40:00 -5.4 C 3.11 g/m*3 -5.4 C 0 km/h
658 30-11-2020 06:45:00 -5.4 C 3.11 g/m*3 -5.4 C 3.2 km/h
659 30-11-2020 06:50:00 -5.3 C 3.17 g/m*3 -5.3 C 0 km/h
660 30-11-2020 06:55:00 -5.2 C 3.19 g/m*3 -5.2 C 0 km/h
661 30-11-2020 07:00:00 -5.1 C 3.21 g/m*3 -5.1 C 0 km/h
662 30-11-2020 07:05:00 -5.1 C 3.21 g/m*3 -5.1 C 0 km/h
663 30-11-2020 07:10:00 -5 C 3.23 g/m*3 -5 C 0 km/h
664 30-11-2020 07:15:00 -4.9 C 3.26 g/m*3 -4.9 C 1.6 km/h
665 30-11-2020 07:20:00 -4.9 C 3.26 g/m*3 -4.9 C 0 km/h
666 30-11-2020 07:25:00 -4.9 C 3.26 g/m*3 -4.9 C 0 km/h
667 30-11-2020 07:30:00 -5 C 3.23 g/m*3 -5 C 0 km/h
668 30-11-2020 07:35:00 -5.1 C 3.21 g/m*3 -5.1 C 0 km/h
669 30-11-2020 07:40:00 -5.2 C 3.15 g/m*3 -5.2 C 0 km/h
670 30-11-2020 07:45:00 -5.3 C 3.13 g/m*3 -5.3 C 0 km/h
671 30-11-2020 07:50:00 -5.4 C 3.11 g/m*3 -5.4 C 0 km/h
672 30-11-2020 07:55:00 -5.6 C 3.06 g/m*3 -5.6 C 0 km/h
673 30-11-2020 08:00:00 -5.7 C 3.04 g/m*3 -5.7 C 1.6 km/h
674 30-11-2020 08:05:00 -5.8 C 3.02 g/m*3 -5.8 C 0 km/h
675 30-11-2020 08:10:00 -5.8 C 3.02 g/m*3 -5.8 C 1.6 km/h
Sensor: Nr:Datum:Temp:Abs-Feuchte:Windchill:Wind:
Aussen-T/F 676 30-11-2020 08:15:00 -5.8 C 3.02 g/m*3 -5.8 C 0 km/h
677 30-11-2020 08:20:00 -5.8 C 3.02 g/m*3 -5.8 C 0 km/h
678 30-11-2020 08:25:00 -5.7 C 3.04 g/m*3 -5.7 C 1.6 km/h
679 30-11-2020 08:30:00 -5.7 C 3.04 g/m*3 -5.7 C 0 km/h
680 30-11-2020 08:35:00 -5.7 C 3.04 g/m*3 -5.7 C 0 km/h
681 30-11-2020 08:40:00 -5.8 C 3.02 g/m*3 -5.8 C 0 km/h
682 30-11-2020 08:45:00 -5.8 C 3.02 g/m*3 -5.8 C 0 km/h
683 30-11-2020 08:50:00 -5.8 C 3.02 g/m*3 -5.8 C 0 km/h
684 30-11-2020 08:55:00 -5.8 C 3.02 g/m*3 -5.8 C 0 km/h
685 30-11-2020 09:00:00 -5.8 C 3.02 g/m*3 -5.8 C 0 km/h
686 30-11-2020 09:05:00 -5.7 C 3.07 g/m*3 -5.7 C 0 km/h
687 30-11-2020 09:10:00 -5.6 C 3.1 g/m*3 -5.6 C 1.6 km/h
688 30-11-2020 09:15:00 -5.5 C 3.12 g/m*3 -5.5 C 0 km/h
689 30-11-2020 09:20:00 -5.4 C 3.11 g/m*3 -5.4 C 0 km/h
690 30-11-2020 09:25:00 -5.4 C 3.11 g/m*3 -5.4 C 0 km/h
691 30-11-2020 09:30:00 -5.4 C 3.11 g/m*3 -5.4 C 0 km/h
692 30-11-2020 09:35:00 -5.4 C 3.14 g/m*3 -5.4 C 0 km/h
693 30-11-2020 09:40:00 -5.4 C 3.14 g/m*3 -5.4 C 0 km/h
694 30-11-2020 09:45:00 -5.3 C 3.17 g/m*3 -5.3 C 0 km/h
695 30-11-2020 09:50:00 -5.3 C 3.17 g/m*3 -5.3 C 0 km/h
696 30-11-2020 09:55:00 -5.3 C 3.17 g/m*3 -5.3 C 0 km/h
697 30-11-2020 10:00:00 -5.2 C 3.19 g/m*3 -5.2 C 0 km/h
698 30-11-2020 10:05:00 -5.2 C 3.19 g/m*3 -5.2 C 0 km/h
699 30-11-2020 10:10:00 -5.1 C 3.21 g/m*3 -5.1 C 1.6 km/h
700 30-11-2020 10:15:00 -5.1 C 3.21 g/m*3 -5.1 C 0 km/h
Sensor: Nr:Datum:Temp:Abs-Feuchte:Windchill:Wind:
Aussen-T/F 701 30-11-2020 10:20:00 -5 C 3.23 g/m*3 -5 C 3.2 km/h
702 30-11-2020 10:25:00 -4.9 C 3.26 g/m*3 -4.9 C 1.6 km/h
703 30-11-2020 10:30:00 -4.8 C 3.28 g/m*3 -4.8 C 0 km/h
704 30-11-2020 10:35:00 -4.7 C 3.31 g/m*3 -4.7 C 0 km/h
705 30-11-2020 10:40:00 -4.6 C 3.33 g/m*3 -4.6 C 0 km/h
706 30-11-2020 10:45:00 -4.5 C 3.35 g/m*3 -4.5 C 0 km/h
707 30-11-2020 10:50:00 -4.4 C 3.38 g/m*3 -4.4 C 0 km/h
708 30-11-2020 10:55:00 -4.3 C 3.4 g/m*3 -4.3 C 0 km/h
709 30-11-2020 11:00:00 -4.3 C 3.4 g/m*3 -4.3 C 1.6 km/h
710 30-11-2020 11:05:00 -4.2 C 3.43 g/m*3 -4.2 C 0 km/h
711 30-11-2020 11:10:00 -4.1 C 3.45 g/m*3 -4.1 C 0 km/h
712 30-11-2020 11:15:00 -3.9 C 3.5 g/m*3 -3.9 C 0 km/h
713 30-11-2020 11:20:00 -3.8 C 3.53 g/m*3 -3.8 C 0 km/h
714 30-11-2020 11:25:00 -3.7 C 3.55 g/m*3 -3.7 C 0 km/h
715 30-11-2020 11:30:00 -3.6 C 3.58 g/m*3 -3.6 C 3.2 km/h
716 30-11-2020 11:35:00 -3.5 C 3.6 g/m*3 -3.5 C 3.2 km/h
717 30-11-2020 11:40:00 -3.3 C 3.65 g/m*3 -3.3 C 3.2 km/h
718 30-11-2020 11:45:00 -3.2 C 3.68 g/m*3 -3.2 C 3.2 km/h
719 30-11-2020 11:50:00 -3.2 C 3.72 g/m*3 -3.2 C 0 km/h
720 30-11-2020 11:55:00 -3.1 C 3.71 g/m*3 -3.1 C 0 km/h
721 30-11-2020 12:00:00 -2.9 C 3.76 g/m*3 -2.9 C 3.2 km/h
722 30-11-2020 12:05:00 -2.9 C 3.8 g/m*3 -2.9 C 1.6 km/h
723 30-11-2020 12:10:00 -2.8 C 3.82 g/m*3 -2.8 C 0 km/h
724 30-11-2020 12:15:00 -2.8 C 3.78 g/m*3 -2.8 C 0 km/h
725 30-11-2020 12:20:00 -2.7 C 3.81 g/m*3 -2.7 C 0 km/h
Sensor: Nr:Datum:Temp:Abs-Feuchte:Windchill:Wind:
Aussen-T/F 726 30-11-2020 12:25:00 -2.6 C 3.84 g/m*3 -2.6 C 3.2 km/h
727 30-11-2020 12:30:00 -2.4 C 3.93 g/m*3 -2.4 C 1.6 km/h
728 30-11-2020 12:35:00 -2.3 C 3.96 g/m*3 -2.3 C 4.8 km/h
729 30-11-2020 12:40:00 -2.1 C 4.02 g/m*3 -2.1 C 0 km/h
730 30-11-2020 12:45:00 -1.8 C 4.1 g/m*3 -1.8 C 3.2 km/h
731 30-11-2020 12:50:00 -1.5 C 4.19 g/m*3 -1.5 C 0 km/h
732 30-11-2020 12:55:00 -1.2 C 4.28 g/m*3 -1.2 C 3.2 km/h
733 30-11-2020 13:00:00 -0.9 C 4.37 g/m*3 -3.22 C 6.4 km/h
734 30-11-2020 13:05:00 -0.7 C 4.43 g/m*3 -2.99 C 6.4 km/h
735 30-11-2020 13:10:00 -0.5 C 4.49 g/m*3 -0.5 C 1.6 km/h
736 30-11-2020 13:15:00 -0.3 C 4.56 g/m*3 -0.3 C 0 km/h
737 30-11-2020 13:20:00 -0.2 C 4.59 g/m*3 -0.2 C 0 km/h
738 30-11-2020 13:25:00 -0.1 C 4.62 g/m*3 -0.1 C 4.8 km/h
739 30-11-2020 13:30:00 0.1 C 4.68 g/m*3 0.1 C 4.8 km/h
740 30-11-2020 13:35:00 0.2 C 4.72 g/m*3 0.2 C 3.2 km/h
741 30-11-2020 13:40:00 0.4 C 4.78 g/m*3 0.4 C 3.2 km/h
742 30-11-2020 13:45:00 0.5 C 4.86 g/m*3 0.5 C 0 km/h
743 30-11-2020 13:50:00 0.7 C 4.88 g/m*3 0.7 C 1.6 km/h
744 30-11-2020 13:55:00 0.9 C 5 g/m*3 -2.16 C 9.7 km/h
745 30-11-2020 14:00:00 1.1 C 5.02 g/m*3 1.1 C 1.6 km/h
746 30-11-2020 14:05:00 1.3 C 5.14 g/m*3 1.3 C 4.8 km/h
747 30-11-2020 14:10:00 1.6 C 5.25 g/m*3 -1.33 C 9.7 km/h
748 30-11-2020 14:15:00 1.8 C 5.26 g/m*3 1.8 C 4.8 km/h
749 30-11-2020 14:20:00 2 C 5.28 g/m*3 2 C 0 km/h
750 30-11-2020 14:25:00 2.1 C 5.26 g/m*3 -0.73 C 9.7 km/h
Sensor: Nr:Datum:Temp:Abs-Feuchte:Windchill:Wind:
Aussen-T/F 751 30-11-2020 14:30:00 2.2 C 5.24 g/m*3 2.2 C 1.6 km/h
752 30-11-2020 14:35:00 2.3 C 5.27 g/m*3 2.3 C 3.2 km/h
753 30-11-2020 14:40:00 2.4 C 5.25 g/m*3 2.4 C 0 km/h
754 30-11-2020 14:45:00 2.4 C 5.25 g/m*3 2.4 C 4.8 km/h
755 30-11-2020 14:50:00 2.5 C 5.23 g/m*3 2.5 C 4.8 km/h
756 30-11-2020 14:55:00 2.5 C 5.17 g/m*3 2.5 C 1.6 km/h
757 30-11-2020 15:00:00 2.4 C 5.14 g/m*3 2.4 C 1.6 km/h
758 30-11-2020 15:05:00 2.3 C 5.05 g/m*3 2.3 C 1.6 km/h
759 30-11-2020 15:10:00 2.2 C 5.07 g/m*3 2.2 C 0 km/h
760 30-11-2020 15:15:00 2 C 4.95 g/m*3 2 C 3.2 km/h
761 30-11-2020 15:20:00 2 C 4.95 g/m*3 2 C 1.6 km/h
762 30-11-2020 15:25:00 2.1 C 4.98 g/m*3 2.1 C 1.6 km/h
763 30-11-2020 15:30:00 2.1 C 4.98 g/m*3 2.1 C 4.8 km/h
764 30-11-2020 15:35:00 2.2 C 4.96 g/m*3 -0.18 C 8.1 km/h
765 30-11-2020 15:40:00 2.3 C 4.93 g/m*3 2.3 C 4.8 km/h
766 30-11-2020 15:45:00 2.4 C 4.97 g/m*3 2.4 C 4.8 km/h
767 30-11-2020 15:50:00 2.5 C 4.94 g/m*3 0.17 C 8.1 km/h
768 30-11-2020 15:55:00 2.6 C 4.92 g/m*3 0.82 C 6.4 km/h
769 30-11-2020 16:00:00 2.7 C 4.89 g/m*3 -0.38 C 11.3 km/h
770 30-11-2020 16:05:00 2.8 C 4.93 g/m*3 -0.26 C 11.3 km/h
771 30-11-2020 16:10:00 2.9 C 4.9 g/m*3 -0.76 C 14.5 km/h
772 30-11-2020 16:15:00 3 C 4.93 g/m*3 -0.63 C 14.5 km/h
773 30-11-2020 16:20:00 3 C 4.93 g/m*3 0.34 C 9.7 km/h
774 30-11-2020 16:25:00 3 C 4.93 g/m*3 -0.02 C 11.3 km/h
775 30-11-2020 16:30:00 3 C 4.93 g/m*3 0.34 C 9.7 km/h
Sensor: Nr:Datum:Temp:Abs-Feuchte:Windchill:Wind:
Aussen-T/F 776 30-11-2020 16:35:00 3 C 4.93 g/m*3 -0.02 C 11.3 km/h
777 30-11-2020 16:40:00 2.9 C 4.9 g/m*3 0.64 C 8.1 km/h
778 30-11-2020 16:45:00 2.9 C 4.9 g/m*3 2.9 C 4.8 km/h
779 30-11-2020 16:50:00 2.8 C 4.87 g/m*3 2.8 C 4.8 km/h
780 30-11-2020 16:55:00 2.8 C 4.87 g/m*3 2.8 C 4.8 km/h
781 30-11-2020 17:00:00 2.8 C 4.87 g/m*3 1.05 C 6.4 km/h
782 30-11-2020 17:05:00 2.7 C 4.84 g/m*3 2.7 C 4.8 km/h
783 30-11-2020 17:10:00 2.7 C 4.84 g/m*3 0.4 C 8.1 km/h
784 30-11-2020 17:15:00 2.8 C 4.87 g/m*3 0.1 C 9.7 km/h
785 30-11-2020 17:20:00 2.8 C 4.87 g/m*3 -0.26 C 11.3 km/h
786 30-11-2020 17:25:00 2.8 C 4.87 g/m*3 0.52 C 8.1 km/h
787 30-11-2020 17:30:00 2.8 C 4.87 g/m*3 -0.26 C 11.3 km/h
788 30-11-2020 17:35:00 2.9 C 4.9 g/m*3 0.64 C 8.1 km/h
789 30-11-2020 17:40:00 2.9 C 4.9 g/m*3 0.22 C 9.7 km/h
790 30-11-2020 17:45:00 2.9 C 4.9 g/m*3 -0.14 C 11.3 km/h
791 30-11-2020 17:50:00 2.9 C 4.9 g/m*3 1.17 C 6.4 km/h
792 30-11-2020 17:55:00 2.9 C 4.9 g/m*3 0.22 C 9.7 km/h
793 30-11-2020 18:00:00 2.9 C 4.9 g/m*3 1.17 C 6.4 km/h
794 30-11-2020 18:05:00 2.9 C 4.9 g/m*3 -0.76 C 14.5 km/h
795 30-11-2020 18:10:00 3 C 4.93 g/m*3 -1.36 C 19.3 km/h
796 30-11-2020 18:15:00 3.1 C 4.91 g/m*3 0.1 C 11.3 km/h
797 30-11-2020 18:20:00 3.1 C 4.91 g/m*3 -0.51 C 14.5 km/h
798 30-11-2020 18:25:00 3.2 C 4.94 g/m*3 0.58 C 9.7 km/h
799 30-11-2020 18:30:00 3.2 C 4.94 g/m*3 -0.89 C 17.7 km/h
800 30-11-2020 18:35:00 3.2 C 4.94 g/m*3 -0.65 C 16.1 km/h
Sensor: Nr:Datum:Temp:Abs-Feuchte:Windchill:Wind:
Aussen-T/F 801 30-11-2020 18:40:00 3.1 C 4.91 g/m*3 -0.77 C 16.1 km/h
802 30-11-2020 18:45:00 3.1 C 4.91 g/m*3 -0.77 C 16.1 km/h
803 30-11-2020 18:50:00 3.1 C 4.97 g/m*3 -0.51 C 14.5 km/h
804 30-11-2020 18:55:00 3 C 4.99 g/m*3 -1.14 C 17.7 km/h
805 30-11-2020 19:00:00 2.9 C 5.02 g/m*3 -0.76 C 14.5 km/h
806 30-11-2020 19:05:00 2.8 C 5.04 g/m*3 -0.59 C 12.9 km/h
807 30-11-2020 19:10:00 2.7 C 5.01 g/m*3 -0.02 C 9.7 km/h
808 30-11-2020 19:15:00 2.7 C 5.07 g/m*3 -0.71 C 12.9 km/h
809 30-11-2020 19:20:00 2.7 C 5.07 g/m*3 -0.02 C 9.7 km/h
810 30-11-2020 19:25:00 2.6 C 5.09 g/m*3 -1.12 C 14.5 km/h
811 30-11-2020 19:30:00 2.6 C 5.15 g/m*3 0.29 C 8.1 km/h
812 30-11-2020 19:35:00 2.5 C 5.12 g/m*3 -0.95 C 12.9 km/h
813 30-11-2020 19:40:00 2.4 C 5.14 g/m*3 -0.74 C 11.3 km/h
814 30-11-2020 19:45:00 2.4 C 5.14 g/m*3 0.59 C 6.4 km/h
815 30-11-2020 19:50:00 2.3 C 5.1 g/m*3 -0.87 C 11.3 km/h
816 30-11-2020 19:55:00 2.3 C 5.16 g/m*3 -0.87 C 11.3 km/h
817 30-11-2020 20:00:00 2.3 C 5.16 g/m*3 2.3 C 4.8 km/h
818 30-11-2020 20:05:00 2.2 C 5.13 g/m*3 -1.89 C 16.1 km/h
819 30-11-2020 20:10:00 2.2 C 5.13 g/m*3 -1.32 C 12.9 km/h
820 30-11-2020 20:15:00 2.2 C 5.18 g/m*3 -2.37 C 19.3 km/h
821 30-11-2020 20:20:00 2.1 C 5.15 g/m*3 -1.44 C 12.9 km/h
822 30-11-2020 20:25:00 2.1 C 5.15 g/m*3 -1.44 C 12.9 km/h
823 30-11-2020 20:30:00 2.1 C 5.15 g/m*3 -1.74 C 14.5 km/h
824 30-11-2020 20:35:00 2.1 C 5.15 g/m*3 -1.11 C 11.3 km/h
825 30-11-2020 20:40:00 2 C 5.17 g/m*3 -1.86 C 14.5 km/h
Sensor: Nr:Datum:Temp:Abs-Feuchte:Windchill:Wind:
Aussen-T/F 826 30-11-2020 20:45:00 2 C 5.17 g/m*3 -2.14 C 16.1 km/h
827 30-11-2020 20:50:00 2 C 5.17 g/m*3 -1.56 C 12.9 km/h
828 30-11-2020 20:55:00 2 C 5.17 g/m*3 -1.23 C 11.3 km/h
829 30-11-2020 21:00:00 2 C 5.17 g/m*3 -1.56 C 12.9 km/h
830 30-11-2020 21:05:00 1.9 C 5.13 g/m*3 -0.97 C 9.7 km/h
831 30-11-2020 21:10:00 1.9 C 5.13 g/m*3 -0.97 C 9.7 km/h
832 30-11-2020 21:15:00 1.9 C 5.19 g/m*3 -1.35 C 11.3 km/h
833 30-11-2020 21:20:00 1.9 C 5.19 g/m*3 -0.54 C 8.1 km/h
834 30-11-2020 21:25:00 1.9 C 5.19 g/m*3 -0.97 C 9.7 km/h
835 30-11-2020 21:30:00 1.9 C 5.19 g/m*3 -0.54 C 8.1 km/h
836 30-11-2020 21:35:00 1.9 C 5.19 g/m*3 0.01 C 6.4 km/h
837 30-11-2020 21:40:00 1.9 C 5.19 g/m*3 1.9 C 4.8 km/h
838 30-11-2020 21:45:00 1.9 C 5.19 g/m*3 1.9 C 3.2 km/h
839 30-11-2020 21:50:00 1.9 C 5.19 g/m*3 1.9 C 0 km/h
840 30-11-2020 21:55:00 1.9 C 5.19 g/m*3 1.9 C 1.6 km/h
841 30-11-2020 22:00:00 1.9 C 5.19 g/m*3 1.9 C 3.2 km/h
842 30-11-2020 22:05:00 1.9 C 5.19 g/m*3 1.9 C 1.6 km/h
843 30-11-2020 22:10:00 1.9 C 5.19 g/m*3 1.9 C 4.8 km/h
844 30-11-2020 22:15:00 1.9 C 5.24 g/m*3 1.9 C 4.8 km/h
845 30-11-2020 22:20:00 1.9 C 5.24 g/m*3 1.9 C 3.2 km/h
846 30-11-2020 22:25:00 1.9 C 5.24 g/m*3 1.9 C 3.2 km/h
847 30-11-2020 22:30:00 1.9 C 5.24 g/m*3 1.9 C 4.8 km/h
848 30-11-2020 22:35:00 1.9 C 5.24 g/m*3 1.9 C 1.6 km/h
849 30-11-2020 22:40:00 1.9 C 5.24 g/m*3 -0.54 C 8.1 km/h
850 30-11-2020 22:45:00 1.9 C 5.24 g/m*3 1.9 C 4.8 km/h
Sensor: Nr:Datum:Temp:Abs-Feuchte:Windchill:Wind:
Aussen-T/F 851 30-11-2020 22:50:00 1.9 C 5.24 g/m*3 -0.54 C 8.1 km/h
852 30-11-2020 22:55:00 1.8 C 5.15 g/m*3 -1.09 C 9.7 km/h
853 30-11-2020 23:00:00 1.8 C 5.15 g/m*3 -2.11 C 14.5 km/h
854 30-11-2020 23:05:00 1.8 C 5.15 g/m*3 -1.09 C 9.7 km/h
855 30-11-2020 23:10:00 1.7 C 5.12 g/m*3 -1.93 C 12.9 km/h
856 30-11-2020 23:15:00 1.7 C 5.17 g/m*3 -3.22 C 20.9 km/h
857 30-11-2020 23:20:00 1.7 C 5.17 g/m*3 -3.22 C 20.9 km/h
858 30-11-2020 23:25:00 1.6 C 5.14 g/m*3 -1.33 C 9.7 km/h
859 30-11-2020 23:30:00 1.5 C 5.05 g/m*3 -0.45 C 6.4 km/h
860 30-11-2020 23:35:00 1.5 C 5.05 g/m*3 -0.45 C 6.4 km/h
861 30-11-2020 23:40:00 1.4 C 5.07 g/m*3 -2.29 C 12.9 km/h
862 30-11-2020 23:45:00 1.4 C 5.07 g/m*3 -1.57 C 9.7 km/h
863 30-11-2020 23:50:00 1.4 C 5.07 g/m*3 -2.6 C 14.5 km/h
864 30-11-2020 23:55:00 1.4 C 5.07 g/m*3 -1.12 C 8.1 km/h

Legende:
   Min
   Max


Maximal/Minimal-Werte vom 28.11.2020 - 30.11.2020

Sensor Min Max Avg
Temp
(Aussen-T/F)
-5.8 °C
30-11-2020  08:05:00
4.3 °C
28-11-2020  13:55:00
0.88 °C
Abs-Feuchte
(Aussen-T/F)
3.02 g/m*3
30-11-2020  08:05:00
5.83 g/m*3
28-11-2020  00:10:00
4.71 g/m*3
Windchill
(Aussen-T/F)
-5.8 C
30-11-2020  08:05:00
4.3 C
28-11-2020  13:55:00
0.32 C

Die Daten stammen von einer Davis Vantage Pro 2 Wetter-Station und werden unter Linux mit der Software wview2wettercgi und aufbereitet. Alle Angaben erfolgen ohne Gewähr für ihre Vollständigkeit oder Richtigkeit.
Kontakt: Rainer Krienke krienke@uni-koblenz.de . Meine Webseiten an der Uni Koblenz oder privat.
Version: $Revision: 0.78 $